Weather History for Hot Springs, VA

Change the Weather History Date:

Saturday, February 25, 2012

  Actual Average Record
Temperature  
Mean Temperature 20 °F -  
Max Temperature 24 °F 38 °F 57 °F (2001)
Min Temperature 17 °F 23 °F 17 °F (1999)
Degree Days  
Heating Degree Days 44    
Moisture  
Dew Point 13 °F    
Average Humidity 71    
Maximum Humidity 100    
Minimum Humidity 50    
Precipitation  
Precipitation 0.00 in - - ()
Sea Level Pressure  
Sea Level Pressure 29.89 in    
Wind  
Wind Speed 25 mph (WNW)    
Max Wind Speed 33 mph    
Max Gust Speed 51 mph    
Visibility 8 miles    
Events Snow    
Averages and records for this station are not official NWS values.
T = Trace of Precipitation, MM = Missing Value Source: NWS Daily Summary

Daily Weather History Graph

Daily Weather History Graph

Search for Another Location

Airport:

Trip Planner

Search our weather history database for the weather conditions in past years. The results will help you decide how hot, cold, wet, or windy it might be!

Date:

Astronomy

Feb. 25, 2012 Rise Set
Actual Time 6:57 AM EST 6:08 PM EST
Civil Twilight 6:30 AM EST 6:34 PM EST
Nautical Twilight 6:00 AM EST 7:05 PM EST
Astronomical Twilight 5:29 AM EST 7:35 PM EST
Moon 8:25 AM EST (2/25) 10:02 PM EST (2/25)
Length of Visible Light 12h 04m
Length of Day
11h 11m
Waxing Crescent, 13% of the Moon is Illuminated
Feb 25
Waxing Crescent
Feb 29
First Quarter
Mar 8
Full
Mar 14
Last Quarter
Mar 22
New

Hourly Weather History & Observations

Time (EST) Temp. Windchill Dew Point Humidity Pressure Visibility Wind Dir Wind Speed Gust Speed Precip Events Conditions
12:15 AM 24.8 °F 7.1 °F 19.4 °F 80% 29.70 in 7.0 mi West 33.4 mph 43.7 mph N/A   Overcast
12:35 AM 24.8 °F 9.0 °F 21.2 °F 86% 29.70 in 10.0 mi West 25.3 mph 36.8 mph N/A   Overcast
12:55 AM 24.8 °F 9.3 °F 21.2 °F 86% 29.70 in 10.0 mi West 24.2 mph 36.8 mph N/A Snow Light Snow
1:35 AM 24.8 °F 11.5 °F 19.4 °F 80% 29.70 in 10.0 mi WNW 17.3 mph 33.4 mph N/A   Overcast
1:55 AM 24.8 °F 11.5 °F 19.4 °F 80% 29.71 in 10.0 mi WNW 17.3 mph 36.8 mph N/A   Overcast
2:15 AM 24.8 °F 9.0 °F 21.2 °F 86% 29.70 in 7.0 mi West 25.3 mph 34.5 mph N/A Snow Light Snow
2:35 AM 24.8 °F 7.3 °F 21.2 °F 86% 29.70 in 1.0 mi West 32.2 mph 43.7 mph N/A Snow Light Snow
2:55 AM 23.0 °F 7.2 °F 23.0 °F 100% 29.71 in 1.0 mi West 23.0 mph 34.5 mph N/A Snow Light Snow
3:18 AM 23.0 °F 4.6 °F 17.6 °F 80% 29.70 in 10.0 mi West 33.4 mph 44.9 mph N/A   Mostly Cloudy
3:35 AM 23.0 °F 6.3 °F 15.8 °F 74% 29.71 in 10.0 mi West 26.5 mph 41.4 mph N/A   Mostly Cloudy
3:55 AM 23.0 °F 5.7 °F 15.8 °F 74% 29.71 in 10.0 mi West 28.8 mph 42.6 mph N/A   Overcast
4:15 AM 23.0 °F 6.9 °F 15.8 °F 74% 29.72 in 10.0 mi West 24.2 mph 39.1 mph N/A   Overcast
4:55 AM 23.0 °F 6.9 °F 14.0 °F 68% 29.73 in 10.0 mi West 24.2 mph 36.8 mph N/A   Overcast
5:17 AM 23.0 °F 6.0 °F 12.2 °F 63% 29.72 in 10.0 mi West 27.6 mph 38.0 mph N/A   Overcast
5:35 AM 23.0 °F 6.3 °F 14.0 °F 68% 29.73 in 10.0 mi West 26.5 mph 38.0 mph N/A   Overcast
5:55 AM 21.2 °F 4.9 °F 17.6 °F 86% 29.73 in 2.5 mi West 23.0 mph 36.8 mph N/A Snow Light Snow
6:15 AM 19.4 °F 0.5 °F 17.6 °F 93% 29.73 in 1.0 mi WNW 29.9 mph 39.1 mph N/A Snow Light Snow
6:37 AM 21.2 °F 2.2 °F 15.8 °F 80% 29.73 in 10.0 mi West 33.4 mph 50.6 mph N/A   Overcast
6:56 AM 21.2 °F 3.5 °F 14.0 °F 74% 29.76 in 10.0 mi West 27.6 mph 43.7 mph N/A   Overcast
7:15 AM 21.2 °F 4.2 °F 14.0 °F 74% 29.77 in 10.0 mi West 25.3 mph 39.1 mph N/A   Overcast
7:35 AM 19.4 °F 1.4 °F 15.8 °F 86% 29.79 in 4.0 mi West 26.5 mph 40.3 mph N/A Snow Light Snow
7:55 AM 19.4 °F 2.8 °F 17.6 °F 93% 29.79 in 0.2 mi West 21.9 mph 31.1 mph N/A Snow Light Snow
8:15 AM 19.4 °F 3.2 °F 17.6 °F 93% 29.81 in 0.2 mi West 20.7 mph 36.8 mph N/A Snow Heavy Snow
8:35 AM 19.4 °F 3.2 °F 19.4 °F 100% 29.82 in 0.2 mi West 20.7 mph 25.3 mph N/A Snow Heavy Snow
8:57 AM 19.4 °F 1.4 °F 17.6 °F 93% 29.81 in 3.0 mi West 26.5 mph 38.0 mph N/A Snow Light Snow
9:15 AM 21.2 °F 4.2 °F 15.8 °F 80% 29.81 in 2.0 mi West 25.3 mph 35.7 mph N/A Snow Light Snow
9:35 AM 21.2 °F 3.5 °F 12.2 °F 68% 29.81 in 5.0 mi West 27.6 mph 43.7 mph N/A   Haze
9:55 AM 21.2 °F 2.4 °F 12.2 °F 68% 29.81 in 7.0 mi WNW 32.2 mph 42.6 mph N/A   Overcast
10:15 AM 21.2 °F 3.5 °F 12.2 °F 68% 29.83 in 7.0 mi WNW 27.6 mph 42.6 mph N/A   Overcast
10:35 AM 21.2 °F 2.2 °F 12.2 °F 68% 29.83 in 2.5 mi West 33.4 mph 46.0 mph N/A   Overcast
10:55 AM 23.0 °F 5.7 °F 12.2 °F 63% 29.83 in 10.0 mi West 28.8 mph 47.2 mph N/A   Overcast
11:15 AM 21.2 °F 3.3 °F 12.2 °F 68% 29.84 in 10.0 mi West 28.8 mph 42.6 mph N/A   Overcast
11:35 AM 23.0 °F 6.9 °F 12.2 °F 63% 29.85 in 10.0 mi West 24.2 mph 43.7 mph N/A   Overcast
11:55 AM 24.8 °F 7.6 °F 12.2 °F 59% 29.85 in 10.0 mi West 31.1 mph 44.9 mph N/A   Mostly Cloudy
12:15 PM 24.8 °F 7.3 °F 10.4 °F 54% 29.86 in 10.0 mi West 32.2 mph 42.6 mph N/A   Overcast
12:55 PM 24.8 °F 8.4 °F 10.4 °F 54% 29.85 in 10.0 mi West 27.6 mph 38.0 mph N/A   Mostly Cloudy
1:35 PM 24.8 °F 8.4 °F 10.4 °F 54% 29.84 in 10.0 mi West 27.6 mph 40.3 mph N/A   Overcast
1:55 PM 24.8 °F 10.0 °F 10.4 °F 54% 29.87 in 10.0 mi WNW 21.9 mph 36.8 mph N/A   Overcast
2:15 PM 24.8 °F 12.4 °F 10.4 °F 54% 29.87 in 10.0 mi WNW 15.0 mph 33.4 mph N/A   Unknown
2:35 PM 24.8 °F 8.7 °F 8.6 °F 50% 29.89 in 10.0 mi West 26.5 mph 40.3 mph N/A   Overcast
2:55 PM 23.0 °F 8.3 °F 8.6 °F 54% 29.90 in 10.0 mi WNW 19.6 mph 40.3 mph N/A   Overcast
3:35 PM 21.2 °F 6.4 °F 10.4 °F 63% 29.95 in 10.0 mi WNW 18.4 mph 39.1 mph N/A   Mostly Cloudy
3:55 PM 21.2 °F 6.4 °F 8.6 °F 58% 29.97 in 10.0 mi WNW 18.4 mph 41.4 mph N/A   Overcast
4:15 PM 21.2 °F 5.6 °F 10.4 °F 63% 29.97 in 10.0 mi West 20.7 mph 33.4 mph N/A   Overcast
4:35 PM 23.0 °F 8.0 °F 8.6 °F 54% 29.98 in 10.0 mi West 20.7 mph 31.1 mph N/A   Overcast
4:55 PM 21.2 °F 7.3 °F 10.4 °F 63% 29.99 in 10.0 mi West 16.1 mph 27.6 mph N/A   Overcast
5:15 PM 21.2 °F 4.2 °F 10.4 °F 63% 30.00 in 10.0 mi West 25.3 mph 38.0 mph N/A   Overcast
5:35 PM 21.2 °F 6.4 °F 10.4 °F 63% 30.01 in 10.0 mi West 18.4 mph 29.9 mph N/A   Overcast
6:15 PM 19.4 °F 4.1 °F 10.4 °F 68% 30.04 in 10.0 mi WNW 18.4 mph 27.6 mph N/A   Overcast
6:35 PM 19.4 °F 1.8 °F 8.6 °F 63% 30.04 in 10.0 mi West 25.3 mph 38.0 mph N/A   Overcast
6:55 PM 19.4 °F 2.8 °F 10.4 °F 68% 30.06 in 10.0 mi WNW 21.9 mph 35.7 mph N/A   Overcast
7:15 PM 19.4 °F 4.1 °F 10.4 °F 68% 30.06 in 10.0 mi WNW 18.4 mph 32.2 mph N/A   Mostly Cloudy
7:35 PM 19.4 °F 4.1 °F 8.6 °F 63% 30.06 in 10.0 mi WNW 18.4 mph 28.8 mph N/A   Scattered Clouds
8:16 PM 19.4 °F 3.2 °F 10.4 °F 68% 30.11 in 10.0 mi WNW 20.7 mph 36.8 mph N/A   Mostly Cloudy
8:35 PM 19.4 °F 4.5 °F 10.4 °F 68% 30.12 in 10.0 mi West 17.3 mph 24.2 mph N/A   Mostly Cloudy
8:58 PM 19.4 °F 2.8 °F 10.4 °F 68% 30.12 in 10.0 mi WNW 21.9 mph 29.9 mph N/A   Scattered Clouds
9:16 PM 19.4 °F 1.4 °F 10.4 °F 68% 30.14 in 10.0 mi WNW 26.5 mph 35.7 mph N/A   Scattered Clouds
9:55 PM 19.4 °F 2.5 °F 10.4 °F 68% 30.15 in 10.0 mi WNW 23.0 mph 31.1 mph N/A   Clear
10:16 PM 19.4 °F 3.2 °F 10.4 °F 68% 30.16 in 10.0 mi WNW 20.7 mph 29.9 mph N/A   Clear
10:37 PM 19.4 °F 1.8 °F 10.4 °F 68% 30.17 in 10.0 mi WNW 25.3 mph 33.4 mph N/A   Clear
10:55 PM 19.4 °F 2.5 °F 10.4 °F 68% 30.16 in 10.0 mi WNW 23.0 mph 32.2 mph N/A   Clear
11:15 PM 17.6 °F 0.9 °F 10.4 °F 73% 30.17 in 10.0 mi WNW 20.7 mph 33.4 mph N/A   Clear
11:35 PM 17.6 °F 1.7 °F 10.4 °F 73% 30.17 in 10.0 mi WNW 18.4 mph 27.6 mph N/A   Clear
11:55 PM 17.6 °F 3.7 °F 10.4 °F 73% 30.18 in 10.0 mi WNW 13.8 mph 32.2 mph N/A   Clear